Location: Shenandoah County Park
(38.9356°N, 78.4524°W)
Time: 00:50:12
(UTC-05:00)

Envisat - Pass Details

Date: 03 December 2021
Orbit: 764 x 766 km, 98.2° (Epoch: 23 January)

Event Time Altitude Azimuth Distance (km) Brightness Sun altitude
Rises 17:24:33 0° 200° (SSW) 3,216 6.9 -6.6°
Reaches altitude 10° 17:27:19 10° 215° (SW) 2,295 6.5 -7.1°
Maximum altitude 17:31:13 22° 266° (W) 1,610 5.8 -7.8°
Drops below altitude 10° 17:35:10 10° 317° (NW) 2,308 5.8 -8.5°
Sets 17:37:59 0° 332° (NNW) 3,240 6.3 -9.0°
